[[{"header":{"parameterUnit":"m.s-1","parameterCategory":1,"la1":30.2991,"la2":30.254,"lo1":-89.0895,"lo2":-89.0444,"dy":0.0017,"dx":0.0017,"nx":28,"ny":28,"refTime":"2024-03-20T03:00:00:Z","depth":0,"parameterNumber":2,"parameterNumberName":"U-component_of_WINDS"},"data":[0,0,0,0,0,0,0,0,0,0,0,0,0,0,0,0,0,0,0,0,0,0,0,0,0,0,0,0,0,0,0,0,0,0,0,0,0,0,0,0,0,0,0,0,0,0,0,0,0,0,0,0,0,0,0,0,0,0,0.9225,0.9227,0,0.9354,0.9356,0.9357,0.9408,0.9408,0.9408,0.9407,0.9538,0.9542,0.9546,0,0,0,0,0,0,0,0,0,0,0,0,0,0.902,0.9023,0.9225,0.9227,0.9228,0.9354,0.9356,0.9358,0.9409,0.9408,0.9408,0.9407,0.9537,0.9542,0.9546,0,0,0,0,0,0,0,0,0,0,0,0,0,0.9125,0.9025,0.9225,0.9269,0.9274,0.9354,0.9356,0.9358,0.9409,0.9408,0.9408,0.9407,0.9536,0.9541,0.9547,0.9592,0,0,0.9564,0.9567,0,0,0,0,0,0,0,0,0.9119,0.9132,0.9261,0.9266,0.9272,0.9365,0.9332,0.9436,0.9409,0.9357,0.9407,0.9407,0.9481,0.9491,0.9516,0.9598,0.9603,0.9565,0.9568,0.957,0.9572,0,0,0,0,0,0,0,0.9112,0.9127,0.9276,0.9263,0.9269,0.9281,0.9296,0.9352,0.942,0.9362,0.9366,0.9381,0.9484,0.9511,0.952,0.9605,0.9564,0.9569,0.9573,0.9575,0.9728,0.9729,0,0,0,0,0,0,0.9097,0.9121,0.9272,0.928,0.9193,0.9285,0.9302,0.9335,0.942,0.9432,0.9381,0.9383,0.9501,0.9513,0.9524,0.9582,0.957,0.9576,0.9579,0.9727,0.9728,0.9729,0,0,0,0,0,0,0.9093,0.911,0.9267,0.9202,0.9222,0.929,0.9327,0.9338,0.9365,0.9434,0.9446,0.9396,0.9501,0.9517,0.9574,0.9587,0.9578,0.9583,0.9727,0.9728,0.9729,0.9697,0,0,0,0,0,0,0.9087,0.9108,0.9127,0.9202,0.9226,0.9315,0.9328,0.9341,0.9375,0.9378,0.9452,0.9463,0.9502,0.9565,0.958,0.9595,0.9588,0.9726,0.9727,0.9728,0.9697,0.9696,0.9696,0,0,0,0,0,0.9079,0.9113,0.9128,0.9146,0.925,0.9316,0.933,0.9374,0.9376,0.9394,0.9438,0.9461,0.9583,0.9571,0.9588,0.9604,0.9725,0.9727,0.9728,0.9697,0.9697,0.9696,0,0,0,0,0,0,0.9038,0.9123,0.9141,0.92,0.925,0.9324,0.9349,0.9372,0.9423,0.9424,0.9476,0.9492,0.9545,0.9581,0.9566,0.9651,0.9656,0.9661,0.9626,0.9626,0.9626,0.9616,0.9593,0,0,0,0,0,0.9035,0.9082,0.9154,0.9199,0.9224,0.9282,0.9312,0.9342,0.9396,0.9417,0.9466,0.9517,0.9567,0.9599,0.9648,0.9702,0.9718,0.9722,0.9721,0.972,0.9724,0.9754,0.9756,0.9734,0.9734,0.9734,0,0,0.9031,0.9084,0.911,0.9192,0.9235,0.9281,0.9299,0.9348,0.9382,0.9425,0.9482,0.9519,0.9579,0.9635,0.9662,0.9666,0.9733,0.9722,0.9721,0.9725,0.9755,0.9757,0.9759,0.9735,0.9735,0.9735,0,0,0.9047,0.9092,0.9134,0.9176,0.924,0.9278,0.9288,0.9359,0.9385,0.9443,0.9475,0.9517,0.9602,0.9643,0.9675,0.9705,0.9727,0.9719,0.9717,0.9746,0.9747,0.9749,0.9759,0.9762,0.9723,0.9723,0.9723,0,0.9034,0.9105,0.9152,0.9199,0.9233,0.9273,0.9315,0.9354,0.943,0.9453,0.9457,0.9563,0.9607,0.9672,0.9679,0.9704,0.9716,0.9712,0.9744,0.9746,0.9748,0.9758,0.9762,0.9721,0.9722,0.9722,0.9722,0,0.9085,0.9134,0.916,0.9233,0.927,0.9314,0.9367,0.9399,0.9425,0.9462,0.952,0.9574,0.9635,0.9652,0.9678,0.9721,0.9721,0.9733,0.9739,0.9748,0.9758,0.9762,0.9719,0.972,0.972,0.9721,0,0,0.9079,0.9177,0.9185,0.9218,0.9291,0.933,0.9375,0.9434,0.946,0.9511,0.955,0.962,0.9631,0.9668,0.9699,0.9724,0.9742,0.9733,0.9735,0.9732,0.9791,0.9781,0.9785,0.9757,0.9758,0.9759,0.9786,0,0.9104,0.9187,0.923,0.9294,0.9339,0.9377,0.9417,0.9465,0.9501,0.9543,0.9583,0.9632,0.9643,0.9665,0.9692,0.9734,0.9755,0.9733,0.9793,0.9794,0.9776,0.9791,0.9781,0.9804,0.979,0.9791,0.9791,0,0.9145,0.9195,0.9264,0.9331,0.9351,0.9386,0.9443,0.9484,0.9538,0.9563,0.9602,0.9633,0.968,0.9682,0.9748,0.9732,0.9759,0.9783,0.9785,0.9793,0.9793,0.9798,0.9812,0.9815,0.9798,0.9798,0.9797,0,0.9132,0.9218,0.927,0.9297,0.9376,0.9399,0.9433,0.9487,0.952,0.957,0.9591,0.9646,0.9675,0.9716,0.976,0.9757,0.9821,0.9827,0.9842,0.9841,0.9854,0.9853,0.9873,0.9871,0.9871,0.9871,0.9871,0,0.9156,0.9196,0.9265,0.9297,0.9343,0.9391,0.9435,0.9471,0.9519,0.9558,0.9594,0.963,0.9686,0.9728,0.9762,0.9811,0.9824,0.9844,0.9853,0.9841,0.9839,0.986,0.9859,0.9872,0.9872,0.9872,0.9872,0,0.915,0.9198,0.9257,0.9327,0.9345,0.9375,0.9435,0.9467,0.9504,0.9552,0.9567,0.9625,0.9676,0.9724,0.9792,0.9815,0.9864,0.9876,0.9846,0.9851,0.9863,0.9861,0.9897,0.9904,0.9898,0.9898,0.9898,0,0.9162,0.9194,0.9266,0.9295,0.9328,0.9374,0.9408,0.9456,0.9489,0.9553,0.9577,0.9631,0.9677,0.9757,0.9805,0.9857,0.987,0.9879,0.9878,0.9864,0.9869,0.9867,0.987,0.9878,0.9878,0.9878,0.9877,0,0.9177,0.9199,0.9246,0.93,0.9339,0.9384,0.9431,0.9452,0.9509,0.9544,0.9597,0.9633,0.9702,0.9755,0.9813,0.9847,0.9871,0.9877,0.9884,0.9872,0.9853,0.9863,0.9844,0.9876,0.9876,0.9877,0.9877,0.9877,0.918,0.921,0.9265,0.9316,0.9356,0.9398,0.9431,0.9472,0.9517,0.9578,0.9603,0.9657,0.971,0.979,0.9823,0.9865,0.9871,0.988,0.9882,0.9884,0.9881,0.9846,0.9876,0.9876,0.9876,0.9876,0.9876,0,0.9196,0.9234,0.928,0.9344,0.9383,0.9403,0.9455,0.9486,0.9533,0.9581,0.9625,0.9685,0.9736,0.9788,0.9842,0.9865,0.9878,0.9878,0.9877,0.9884,0.9873,0.9863,0.9867,0.9867,0.9867,0.9867,0.9867,0.9867,0.921,0.926,0.9288,0.9359,0.9396,0.9449,0.9477,0.9516,0.9554,0.962,0.9663,0.9696,0.9745,0.9802,0.985,0.9864,0.9882,0.9878,0.9895,0.9884,0.9885,0.9885,0.9875,0.9882,0.9882,0.9902,0.9902,0.9903]},{"header":{"parameterUnit":"m.s-1","parameterCategory":1,"la1":30.2991,"la2":30.254,"lo1":-89.0895,"lo2":-89.0444,"dy":0.0017,"dx":0.0017,"nx":28,"ny":28,"refTime":"2024-03-20T03:00:00:Z","depth":0,"parameterNumber":3,"parameterNumberName":"V-component_of_WINDS"},"data":[0,0,0,0,0,0,0,0,0,0,0,0,0,0,0,0,0,0,0,0,0,0,0,0,0,0,0,0,0,0,0,0,0,0,0,0,0,0,0,0,0,0,0,0,0,0,0,0,0,0,0,0,0,0,0,0,0,0,1.6531,1.6531,0,1.6535,1.6535,1.6535,1.6509,1.6509,1.6508,1.6507,1.6511,1.6511,1.6512,0,0,0,0,0,0,0,0,0,0,0,0,0,1.6499,1.65,1.6531,1.6531,1.6531,1.6535,1.6535,1.6535,1.6509,1.6509,1.6508,1.6507,1.651,1.6511,1.6512,0,0,0,0,0,0,0,0,0,0,0,0,0,1.6509,1.65,1.6531,1.6519,1.6518,1.6535,1.6535,1.6535,1.651,1.6509,1.6507,1.6506,1.651,1.6511,1.6512,1.6541,0,0,1.6516,1.6516,0,0,0,0,0,0,0,0,1.6508,1.651,1.652,1.6519,1.6518,1.652,1.6525,1.6537,1.651,1.6513,1.6507,1.6506,1.6515,1.6515,1.6518,1.6541,1.6541,1.6516,1.6517,1.6517,1.6517,0,0,0,0,0,0,0,1.6508,1.651,1.6532,1.6521,1.6519,1.6512,1.6513,1.6527,1.652,1.6512,1.6511,1.6511,1.6514,1.6517,1.6518,1.6541,1.6516,1.6517,1.6518,1.6518,1.6585,1.6586,0,0,0,0,0,0,1.6509,1.6509,1.6532,1.6532,1.6511,1.6514,1.6514,1.6521,1.6519,1.6518,1.6512,1.651,1.6516,1.6517,1.6518,1.655,1.6517,1.6518,1.6519,1.6584,1.6585,1.6586,0,0,0,0,0,0,1.6508,1.6511,1.6532,1.652,1.6522,1.6515,1.6523,1.6521,1.6525,1.6519,1.6518,1.6517,1.6515,1.6517,1.6535,1.655,1.6519,1.652,1.6582,1.6584,1.6585,1.6615,0,0,0,0,0,0,1.6508,1.6511,1.6523,1.6521,1.6523,1.6549,1.6524,1.6522,1.6527,1.6524,1.6524,1.6523,1.6514,1.6533,1.6536,1.6551,1.6521,1.6581,1.6583,1.6585,1.6612,1.6617,1.6621,0,0,0,0,0,1.6506,1.6531,1.6523,1.6526,1.6537,1.655,1.6551,1.6542,1.6528,1.6539,1.6535,1.6523,1.6548,1.6535,1.6538,1.6554,1.658,1.6582,1.6585,1.661,1.6616,1.6621,0,0,0,0,0,0,1.6535,1.6531,1.6522,1.6547,1.6549,1.6546,1.6559,1.6549,1.6555,1.6552,1.6539,1.6539,1.6559,1.6558,1.6545,1.658,1.6561,1.6565,1.658,1.6585,1.659,1.6589,1.6521,0,0,0,0,0,1.6544,1.6555,1.6551,1.6573,1.6574,1.6567,1.6572,1.6564,1.6566,1.6567,1.6564,1.6566,1.6574,1.658,1.6587,1.6612,1.661,1.6624,1.6628,1.6632,1.6634,1.6645,1.6651,1.6594,1.6594,1.6594,0,0,1.6563,1.6562,1.657,1.6579,1.6579,1.659,1.6568,1.6581,1.6588,1.6569,1.6585,1.6583,1.6584,1.6605,1.6615,1.6605,1.665,1.6635,1.6638,1.6639,1.6649,1.6654,1.6659,1.6596,1.6596,1.6595,0,0,1.6603,1.6604,1.6622,1.6623,1.6624,1.6618,1.6623,1.6621,1.6618,1.6635,1.662,1.6628,1.6643,1.6644,1.6646,1.6684,1.6672,1.6687,1.671,1.6721,1.6725,1.6729,1.6741,1.6746,1.669,1.669,1.669,0,1.6627,1.6643,1.6632,1.6646,1.6649,1.6631,1.6648,1.6649,1.6653,1.6655,1.6645,1.6662,1.6661,1.6681,1.669,1.6693,1.6697,1.6687,1.6725,1.6729,1.6733,1.6744,1.6748,1.6691,1.6691,1.6691,1.6691,0,1.6671,1.6682,1.6696,1.6699,1.6704,1.6719,1.671,1.6716,1.6708,1.6703,1.6719,1.6717,1.6723,1.6727,1.672,1.6746,1.674,1.6728,1.6709,1.674,1.675,1.6754,1.6694,1.6693,1.6693,1.6692,0,0,1.6729,1.6725,1.673,1.6731,1.673,1.6738,1.6752,1.6757,1.6762,1.6765,1.6775,1.6787,1.6775,1.6777,1.6769,1.6779,1.6807,1.6765,1.6765,1.6772,1.6834,1.6842,1.6847,1.6799,1.68,1.6801,1.6833,0,1.6767,1.679,1.678,1.6804,1.6813,1.6796,1.6807,1.6807,1.6803,1.6809,1.6804,1.6812,1.6797,1.6798,1.6807,1.6802,1.6819,1.6799,1.6807,1.6808,1.6806,1.6853,1.6862,1.6893,1.6837,1.6838,1.6838,0,1.6815,1.6818,1.6843,1.6838,1.6842,1.6853,1.6855,1.6863,1.6862,1.6858,1.686,1.6849,1.686,1.6842,1.6857,1.6844,1.6846,1.6844,1.6845,1.6845,1.6824,1.6852,1.6903,1.6907,1.6845,1.6844,1.6844,0,1.6853,1.6864,1.688,1.6881,1.6876,1.6884,1.6882,1.6881,1.6884,1.6886,1.6888,1.6892,1.6894,1.6897,1.6887,1.6875,1.6903,1.6884,1.6898,1.6899,1.6905,1.6904,1.6955,1.6908,1.6908,1.6908,1.6908,0,1.6895,1.6911,1.6896,1.6906,1.6922,1.691,1.6926,1.6922,1.692,1.6928,1.6914,1.6921,1.6908,1.6913,1.6906,1.6918,1.692,1.6916,1.6913,1.6916,1.6917,1.6917,1.6914,1.6909,1.6909,1.6909,1.6909,0,1.6941,1.6932,1.6948,1.6942,1.694,1.6952,1.6947,1.6955,1.6949,1.6959,1.696,1.6951,1.6957,1.6947,1.6952,1.6946,1.6964,1.6959,1.6964,1.6962,1.6976,1.6975,1.7028,1.7034,1.6985,1.6985,1.6986,0,1.6968,1.6979,1.6974,1.6978,1.6977,1.6984,1.6987,1.6975,1.6978,1.6977,1.6985,1.6989,1.6992,1.7002,1.6995,1.6998,1.6992,1.7011,1.6993,1.6995,1.6991,1.699,1.699,1.7014,1.7015,1.7015,1.7016,0,1.7017,1.7011,1.7016,1.7019,1.7022,1.7024,1.7025,1.7029,1.7016,1.702,1.7026,1.7028,1.7032,1.7036,1.7037,1.7035,1.7023,1.7022,1.7025,1.7028,1.703,1.7027,1.6973,1.702,1.702,1.7019,1.7019,1.7019,1.7053,1.7061,1.7058,1.7063,1.7062,1.7063,1.7069,1.7063,1.7068,1.707,1.7063,1.707,1.7067,1.7067,1.7066,1.707,1.7062,1.7067,1.7068,1.7069,1.7071,1.703,1.7071,1.707,1.707,1.707,1.707,0,1.7099,1.7096,1.7101,1.7102,1.7105,1.7093,1.7093,1.7097,1.7103,1.7101,1.7104,1.7109,1.7113,1.7106,1.7108,1.7113,1.7107,1.7113,1.7112,1.7112,1.7079,1.7075,1.7118,1.7118,1.7118,1.7118,1.7118,1.7118,1.7124,1.7136,1.713,1.7142,1.7139,1.7145,1.7145,1.7145,1.7143,1.715,1.7153,1.7148,1.7144,1.7145,1.7147,1.7145,1.7146,1.7154,1.715,1.7119,1.7114,1.711,1.7106,1.7155,1.7155,1.7182,1.7182,1.7182]}]]